Palestine, TX

5:56 PM CDT on August 22, 2017 (GMT -0500)
Palestine Municipal

Weather History for KPSN - May, 2013

Change the Weather History Date:

Friday, May 3, 2013

  Actual Average (KTYR) Record (KTYR)
Temperature  
Mean Temperature 52 °F -  
Max Temperature 64 °F 79 °F 93 °F (1943)
Min Temperature 41 °F 59 °F 41 °F (2013)
Degree Days  
Heating Degree Days 12    
Growing Degree Days 2 (Base 50)    
Moisture  
Dew Point 33 °F    
Average Humidity 55    
Maximum Humidity 83    
Minimum Humidity 24    
Precipitation  
Precipitation 0.00 in - - ()
Sea Level Pressure  
Sea Level Pressure 30.19 in    
Wind  
Wind Speed 14 mph (NW)    
Max Wind Speed 24 mph    
Max Gust Speed 37 mph    
Visibility 10 miles    
Events      
Averages and records for this station are not official NWS values.
T = Trace of Precipitation, MM = Missing Value Source: NWS Daily Summary

Daily Weather History Graph

Daily Weather History Graph

Search for Another Location

Airport or City:

Trip Planner

Search our weather history database for the weather conditions in past years. The results will help you decide how hot, cold, wet, or windy it might be!

Date:

Astronomy

May. 03, 2013 Rise Set
Actual Time 6:35 AM CDT 8:04 PM CDT
Civil Twilight 6:09 AM CDT 8:30 PM CDT
Nautical Twilight 5:37 AM CDT 9:01 PM CDT
Astronomical Twilight 5:05 AM CDT 9:34 PM CDT
Moon 2:37 AM CDT (5/3) 2:21 PM CDT (5/3)
Length of Visible Light 14h 21m
Length of Day
13h 29m
Last Quarter, 37% of the Moon is Illuminated
May 3
Last Quarter
May 9
New
May 17
First Quarter
May 24
Full
May 31
Last Quarter

Hourly Weather History & Observations

Time (CDT) Temp. Windchill Dew Point Humidity Pressure Visibility Wind Dir Wind Speed Gust Speed Precip Events Conditions
12:15 AM 42.8 °F 35.4 °F 37.4 °F 81% 30.28 in 10.0 mi NW 15.0 mph 24.2 mph N/A   Overcast
12:35 AM 42.8 °F 35.1 °F 37.6 °F 82% 30.27 in 10.0 mi NW 16.1 mph 24.2 mph N/A   Overcast
12:55 AM 42.8 °F 35.1 °F 36.9 °F 80% 30.27 in 10.0 mi NNW 16.1 mph 25.3 mph N/A   Overcast
1:15 AM 42.8 °F 36.2 °F 36.9 °F 80% 30.26 in 10.0 mi NNW 12.7 mph 21.9 mph N/A   Overcast
1:35 AM 42.8 °F 35.8 °F 36.7 °F 79% 30.26 in 10.0 mi NW 13.8 mph 21.9 mph N/A   Overcast
1:55 AM 42.6 °F 34.6 °F 35.6 °F 76% 30.25 in 10.0 mi NNW 17.3 mph 25.3 mph N/A   Overcast
2:15 AM 42.4 °F 34.4 °F 35.2 °F 76% 30.25 in 10.0 mi NW 17.3 mph 23.0 mph N/A   Overcast
2:35 AM 42.8 °F 35.4 °F 35.2 °F 75% 30.25 in 10.0 mi NW 15.0 mph 24.2 mph N/A   Overcast
2:55 AM 42.8 °F 35.8 °F 34.9 °F 74% 30.24 in 10.0 mi NW 13.8 mph 23.0 mph N/A   Overcast
3:15 AM 42.8 °F 34.8 °F 34.7 °F 73% 30.24 in 10.0 mi NW 17.3 mph 25.3 mph N/A   Overcast
3:35 AM 42.8 °F 34.5 °F 34.9 °F 74% 30.23 in 10.0 mi NW 18.4 mph 24.2 mph N/A   Overcast
3:55 AM 42.8 °F 37.0 °F 34.9 °F 74% 30.23 in 10.0 mi NW 10.4 mph 18.4 mph N/A   Overcast
4:15 AM 42.4 °F 34.7 °F 35.1 °F 75% 30.23 in 10.0 mi NW 16.1 mph 21.9 mph N/A   Mostly Cloudy
4:35 AM 42.4 °F 34.7 °F 34.7 °F 74% 30.23 in 10.0 mi NW 16.1 mph 25.3 mph N/A   Mostly Cloudy
4:55 AM 42.1 °F 36.1 °F 34.5 °F 75% 30.23 in 10.0 mi NW 10.4 mph 18.4 mph N/A   Mostly Cloudy
5:15 AM 42.1 °F 34.9 °F 34.7 °F 75% 30.23 in 10.0 mi NNW 13.8 mph 19.6 mph N/A   Overcast
5:35 AM 41.9 °F 35.4 °F 35.1 °F 77% 30.23 in 10.0 mi NW 11.5 mph 18.4 mph N/A   Overcast
5:55 AM 41.5 °F 34.6 °F 34.7 °F 77% 30.23 in 10.0 mi NW 12.7 mph 21.9 mph N/A   Mostly Cloudy
6:15 AM 41.9 °F 34.6 °F 34.7 °F 76% 30.24 in 10.0 mi NW 13.8 mph 19.6 mph N/A   Mostly Cloudy
6:35 AM 41.9 °F 34.3 °F 34.7 °F 76% 30.24 in 10.0 mi NW 15.0 mph 20.7 mph N/A   Overcast
6:55 AM 41.2 °F 34.1 °F 34.2 °F 76% 30.25 in 10.0 mi NW 12.7 mph 19.6 mph N/A   Overcast
7:15 AM 41.0 °F 33.9 °F 34.2 °F 77% 30.25 in 10.0 mi NW 12.7 mph 19.6 mph N/A   Mostly Cloudy
7:35 AM 41.4 °F 35.7 °F 34.3 °F 76% 30.26 in 10.0 mi NW 9.2 mph - N/A   Scattered Clouds
7:55 AM 41.9 °F 35.9 °F 34.9 °F 76% 30.26 in 10.0 mi NNW 10.4 mph - N/A   Scattered Clouds
8:15 AM 43.0 °F 36.4 °F 35.6 °F 75% 30.26 in 10.0 mi NW 12.7 mph 17.3 mph N/A   Scattered Clouds
8:35 AM 43.7 °F 37.3 °F 35.4 °F 73% 30.26 in 10.0 mi NW 12.7 mph 18.4 mph N/A   Scattered Clouds
8:55 AM 45.5 °F 39.2 °F 34.9 °F 66% 30.26 in 10.0 mi NW 13.8 mph 20.7 mph N/A   Clear
9:15 AM 46.6 °F - 34.2 °F 62% 30.26 in 10.0 mi NNW 12.7 mph 21.9 mph N/A   Clear
9:35 AM 48.2 °F - 34.0 °F 58% 30.26 in 10.0 mi NNW 18.4 mph 23.0 mph N/A   Clear
9:55 AM 48.7 °F - 33.8 °F 56% 30.26 in 10.0 mi NNW 13.8 mph 20.7 mph N/A   Clear
10:15 AM 50.0 °F - 32.7 °F 52% 30.27 in 10.0 mi NW 16.1 mph 24.2 mph N/A   Clear
10:35 AM 51.3 °F - 32.2 °F 48% 30.26 in 10.0 mi NNW 16.1 mph 27.6 mph N/A   Clear
10:55 AM 53.8 °F - 33.6 °F 46% 30.26 in 10.0 mi NW 16.1 mph 23.0 mph N/A   Clear
11:15 AM 54.3 °F - 32.2 °F 43% 30.26 in 10.0 mi NW 17.3 mph 24.2 mph N/A   Clear
11:35 AM 54.5 °F - 30.7 °F 40% 30.25 in 10.0 mi NW 19.6 mph 28.8 mph N/A   Clear
11:55 AM 55.9 °F - 31.6 °F 40% 30.24 in 10.0 mi NNW 17.3 mph 23.0 mph N/A   Clear
12:15 PM 57.6 °F - 31.1 °F 37% 30.24 in 10.0 mi NNW 19.6 mph 27.6 mph N/A   Clear
12:35 PM 57.9 °F - 31.6 °F 37% 30.23 in 10.0 mi NNW 23.0 mph 29.9 mph N/A   Clear
12:55 PM 59.0 °F - 30.6 °F 34% 30.22 in 10.0 mi NNW 19.6 mph 28.8 mph N/A   Clear
1:15 PM 59.7 °F - 29.8 °F 32% 30.21 in 10.0 mi NW 19.6 mph 26.5 mph N/A   Clear
1:35 PM 61.0 °F - 29.3 °F 30% 30.19 in 10.0 mi NNW 15.0 mph 26.5 mph N/A   Clear
1:55 PM 61.5 °F - 29.3 °F 30% 30.18 in 10.0 mi North 24.2 mph 36.8 mph N/A   Clear
2:15 PM 62.1 °F - 30.7 °F 31% 30.18 in 10.0 mi NNW 13.8 mph 32.2 mph N/A   Clear
2:35 PM 63.0 °F - 30.9 °F 30% 30.16 in 10.0 mi NNW 20.7 mph 26.5 mph N/A   Clear
2:55 PM 63.5 °F - 29.1 °F 27% 30.16 in 10.0 mi NNW 16.1 mph 25.3 mph N/A   Clear
3:15 PM 63.7 °F - 28.9 °F 27% 30.15 in 10.0 mi NNW 23.0 mph 29.9 mph N/A   Clear
3:35 PM 64.0 °F - 29.5 °F 27% 30.13 in 10.0 mi NNW 17.3 mph 28.8 mph N/A   Clear
3:55 PM 64.4 °F - 30.2 °F 28% 30.11 in 10.0 mi NNW 18.4 mph 24.2 mph N/A   Clear
4:15 PM 64.8 °F - 29.8 °F 27% 30.11 in 10.0 mi NW 12.7 mph 27.6 mph N/A   Clear
4:35 PM 64.4 °F - 29.8 °F 27% 30.10 in 10.0 mi WNW 13.8 mph 21.9 mph N/A   Clear
4:55 PM 64.6 °F - 27.5 °F 25% 30.10 in 10.0 mi NW 17.3 mph 26.5 mph N/A   Clear
5:15 PM 64.9 °F - 27.5 °F 24% 30.09 in 10.0 mi NW 19.6 mph 26.5 mph N/A   Clear
5:35 PM 64.6 °F - 27.1 °F 24% 30.09 in 10.0 mi NW 12.7 mph 26.5 mph N/A   Clear
5:55 PM 64.2 °F - 26.8 °F 24% 30.09 in 10.0 mi NW 16.1 mph 21.9 mph N/A   Clear
6:15 PM 64.4 °F - 27.5 °F 25% 30.09 in 10.0 mi NNW 10.4 mph 24.2 mph N/A   Clear
6:35 PM 63.5 °F - 27.5 °F 26% 30.08 in 10.0 mi NW 12.7 mph 20.7 mph N/A   Clear
6:55 PM 63.0 °F - 27.5 °F 26% 30.08 in 10.0 mi NNW 12.7 mph 16.1 mph N/A   Clear
7:15 PM 62.2 °F - 27.3 °F 27% 30.08 in 10.0 mi NW 11.5 mph 17.3 mph N/A   Clear
7:35 PM 61.2 °F - 27.7 °F 28% 30.08 in 10.0 mi NW 6.9 mph - N/A   Clear
7:55 PM 59.0 °F - 28.6 °F 31% 30.09 in 10.0 mi NW 4.6 mph - N/A   Clear
8:15 PM 57.9 °F - 28.4 °F 32% 30.09 in 10.0 mi NW 4.6 mph - N/A   Clear
8:35 PM 54.7 °F - 29.3 °F 38% 30.10 in 10.0 mi Calm Calm - N/A   Clear
8:55 PM 51.8 °F - 32.2 °F 47% 30.10 in 10.0 mi Calm Calm - N/A   Clear
9:15 PM 49.3 °F - 36.5 °F 61% 30.10 in 10.0 mi Calm Calm - N/A   Clear
9:35 PM 47.7 °F - 36.5 °F 65% 30.10 in 10.0 mi Calm Calm - N/A   Clear
9:55 PM 46.0 °F - 36.7 °F 70% 30.10 in 10.0 mi Calm Calm - N/A   Clear
10:15 PM 45.0 °F - 36.5 °F 72% 30.10 in 10.0 mi Calm Calm - N/A   Clear
10:35 PM 44.6 °F - 38.1 °F 78% 30.10 in 10.0 mi Calm Calm - N/A   Clear
10:55 PM 43.3 °F - 37.2 °F 79% 30.10 in 10.0 mi Calm Calm - N/A   Clear
11:15 PM 42.1 °F - 36.7 °F 81% 30.09 in 10.0 mi Calm Calm - N/A   Clear
11:35 PM 41.5 °F - 36.9 °F 83% 30.08 in 10.0 mi Calm Calm - N/A   Clear
11:55 PM 41.2 °F - 36.3 °F 83% 30.07 in 10.0 mi Calm Calm - N/A   Clear